Vorticity
11 6 12 14 7 7 8 5 5 4 -1 1 8 2 5 6 -2 4 8 4 9 7 2 2 4 9 9 7 7 6 8 8 8 8 8 9 10 9 8 9 11 12 11 13 11 8 8 5 5 6 5 6 6 4 5 6 8 9 10 10 10 11 10 9 9 10 10 8 8 9 9 9 9 9 9 9 10 9 10 10 9 10 10 10 10 10
21 15 4 7 7 4 8 7 -1 -1 -0 6 13 6 8 7 -0 10 9 5 16 12 4 5 5 8 9 9 9 8 10 9 7 10 10 9 11 9 9 9 10 13 11 10 9 6 7 6 4 6 5 4 5 5 6 8 9 10 10 10 10 9 8 8 9 8 7 6 6 6 6 6 6 6 7 7 8 7 7 8 7 8 8 8 8 8
17 13 10 9 8 1 0 6 7 8 5 7 13 6 5 4 1 9 7 6 15 11 9 11 8 8 6 7 11 11 13 11 6 11 12 7 9 10 9 11 10 11 11 10 11 7 6 8 6 5 4 5 6 6 8 9 10 10 10 10 9 9 8 7 7 5 5 4 4 4 3 4 4 4 5 5 5 5 5 5 5 6 6 6 6 5
18 10 13 9 10 10 -1 -0 10 8 1 8 16 7 2 3 5 6 4 9 10 6 9 9 4 3 2 1 8 11 10 12 10 11 12 9 11 9 6 11 9 8 12 11 10 8 7 9 7 5 5 6 7 8 9 10 10 10 9 9 8 7 7 5 5 3 4 3 3 4 3 4 4 3 4 4 4 4 4 4 4 4 4 5 5 5
3 4 9 -2 -3 18 14 -4 5 15 8 8 7 4 9 9 9 7 4 9 10 9 10 5 1 2 4 3 7 12 7 9 12 9 10 10 12 10 5 9 9 8 12 10 8 8 8 8 7 7 6 6 9 8 9 9 10 9 8 8 7 6 5 3 4 4 4 6 6 7 7 6 6 5 5 6 5 5 5 5 5 5 6 6 5 6
12 11 5 -7 -14 3 16 4 7 17 10 10 8 5 10 8 9 6 1 6 8 12 13 14 13 -2 -4 4 3 8 10 8 10 11 12 9 10 14 10 9 10 11 10 8 8 8 7 8 7 8 7 8 10 9 9 9 9 9 8 7 6 4 4 3 4 6 7 8 8 9 9 9 8 8 7 7 7 7 7 7 7 7 7 6 7 7
9 6 0 11 15 4 7 5 6 14 6 6 11 7 3 2 8 6 2 7 10 11 6 18 31 1 -10 11 2 -3 10 11 7 9 13 9 10 13 11 11 13 10 8 7 9 9 8 9 8 9 8 9 10 9 9 9 8 8 7 6 5 3 4 5 6 7 8 8 8 9 8 9 9 9 9 8 8 8 8 8 7 8 7 7 7 5
9 10 -2 5 14 7 16 8 -3 16 20 11 10 9 4 -0 6 7 2 -1 2 12 4 4 25 13 2 20 18 1 3 13 12 7 10 12 10 10 6 9 13 11 10 9 8 7 7 8 9 9 9 9 10 9 8 8 8 7 6 5 4 4 5 6 7 7 8 8 8 8 7 8 9 9 9 9 8 8 8 9 9 9 9 9 7 5
6 22 6 1 -1 -6 13 6 -10 11 15 8 12 11 10 7 2 3 6 1 1 18 17 -6 -2 16 14 11 21 16 -2 7 17 7 10 14 9 10 7 6 11 12 10 9 7 7 7 8 8 8 9 10 9 9 8 7 7 6 5 4 3 5 5 6 7 5 5 6 7 8 8 9 9 8 9 9 10 10 11 13 14 13 13 11 10 10
1 12 6 17 10 -5 11 11 5 13 1 4 19 8 7 14 7 5 7 2 4 16 23 5 -9 13 26 5 5 18 8 9 15 7 11 13 8 12 10 5 9 12 10 9 8 7 7 7 7 8 9 9 8 9 8 6 6 5 4 4 3 5 6 5 5 4 4 5 6 9 9 9 8 8 9 9 9 10 10 11 13 15 16 14 13 11
5 -6 1 20 8 -3 11 8 5 10 -5 3 20 8 4 6 2 11 9 1 13 17 13 10 -5 0 21 12 1 10 14 14 13 10 11 9 8 11 10 8 9 12 13 12 10 8 8 8 8 9 9 9 8 8 8 6 5 4 3 3 4 5 6 5 4 4 4 5 6 8 9 8 8 8 8 7 6 6 6 7 7 11 14 14 12 8
5 -13 0 15 6 8 18 7 5 13 8 9 12 6 9 5 -5 5 8 5 18 15 5 7 5 5 11 10 10 12 9 9 10 12 10 8 8 6 7 10 10 14 15 12 11 11 10 8 8 9 8 9 8 7 8 6 4 4 3 3 4 5 6 5 4 3 4 4 6 7 7 7 8 8 7 4 2 2 3 5 6 7 11 13 12 9
14 9 7 -6 -10 10 22 14 4 2 9 14 6 1 11 14 7 5 6 12 13 6 10 12 0 5 10 4 11 13 6 5 6 6 9 10 8 4 7 9 8 14 17 12 11 11 11 10 9 10 8 8 8 7 7 6 4 4 3 3 4 5 5 4 5 4 3 3 4 6 7 7 7 8 6 2 0 1 2 2 3 4 8 10 11 11
20 22 17 -3 -5 17 24 17 3 -4 7 7 -1 7 11 7 15 22 15 17 16 6 14 14 -8 -1 20 14 5 4 5 8 7 5 8 10 8 6 7 7 4 7 13 15 14 11 11 12 9 9 9 8 7 8 7 6 5 4 3 3 3 4 4 3 4 4 5 5 4 4 5 5 6 6 5 2 -1 0 -0 -1 0 2 4 7 9 10
20 11 12 6 4 16 22 15 3 4 14 6 3 16 8 -3 12 23 12 5 11 8 3 9 10 10 15 7 -3 -1 6 10 8 6 7 7 7 6 5 7 6 5 8 14 15 11 10 12 11 9 9 9 8 7 7 6 5 4 3 3 3 3 3 3 3 4 4 5 4 5 5 5 6 6 5 3 0 0 -0 0 0 0 1 4 5 6
9 0 9 10 -4 -3 15 16 -0 -4 6 8 12 10 -2 1 10 11 14 7 6 8 -0 7 22 16 5 0 -1 3 10 12 9 6 6 6 4 4 5 5 7 10 11 11 13 14 12 10 10 10 9 9 9 7 7 6 5 4 3 3 3 2 2 2 3 3 3 4 4 5 6 6 6 7 5 3 2 1 1 0 -1 -2 0 1 0 2
5 4 4 10 1 -7 3 11 -0 -1 14 16 9 2 -3 4 6 9 20 12 1 8 10 10 9 4 9 10 2 2 8 12 12 7 5 7 6 4 6 5 4 9 14 14 13 14 14 12 9 10 10 9 9 8 7 7 5 4 3 3 3 2 3 3 2 3 3 3 3 5 6 7 7 7 5 4 4 2 1 1 -2 -2 -1 -1 -1 3
7 6 -2 1 8 4 3 15 12 1 12 15 -1 6 22 11 -2 2 7 3 4 6 8 13 8 7 18 12 -3 -1 5 10 15 11 6 7 8 7 7 8 5 6 12 16 16 13 14 15 10 8 9 9 9 8 7 7 5 5 4 3 3 2 2 2 2 3 3 3 3 3 5 7 7 7 7 6 5 3 2 2 0 -1 0 1 2 6
9 4 5 6 10 10 4 17 22 -2 1 15 -3 -5 15 7 -8 -3 3 13 20 9 6 15 9 6 13 9 2 -0 -2 5 12 12 10 7 8 9 8 9 8 8 10 11 15 14 13 16 14 9 9 8 8 8 7 7 6 5 4 3 3 3 2 3 2 2 3 4 4 3 4 7 7 8 8 7 6 6 5 3 2 2 2 3 6 6
15 7 10 12 6 3 0 10 20 9 5 14 3 -6 1 3 2 4 7 14 16 6 7 11 2 -2 9 22 25 10 -3 4 5 6 12 9 7 9 8 8 9 10 11 9 13 13 10 14 17 13 11 8 7 7 6 7 6 5 5 4 3 3 3 2 2 3 3 3 4 4 4 7 8 9 8 8 8 8 7 4 4 4 3 5 7 6
14 8 5 10 1 -2 7 9 9 14 11 1 3 12 10 2 1 6 14 15 10 3 1 3 5 8 11 19 24 6 -8 2 4 1 8 8 7 9 6 7 9 7 9 11 13 11 8 11 15 15 15 13 11 8 6 6 6 5 6 5 4 4 4 3 3 3 3 4 5 5 5 7 9 9 8 8 9 9 9 7 6 5 5 6 5 5
10 4 1 8 2 -2 6 6 4 13 13 -1 -2 10 13 9 2 0 10 12 6 2 -1 2 7 12 10 10 16 10 -3 2 7 -0 3 7 7 9 7 6 8 6 7 9 11 11 9 10 12 13 13 14 15 14 11 9 7 6 6 6 5 5 4 4 4 4 4 6 5 4 5 7 8 8 8 9 10 11 9 8 8 6 5 5 4 5
12 3 1 5 3 1 -1 -1 7 11 7 5 3 0 8 21 16 3 4 8 8 6 3 5 8 7 4 -1 5 8 -3 3 12 -1 -3 8 7 7 10 7 6 6 5 6 8 9 8 8 11 12 11 11 13 15 15 14 13 11 10 8 8 8 7 6 5 5 6 7 7 6 5 7 8 8 9 10 11 11 8 6 6 5 4 5 5 6
13 5 4 1 2 9 5 -2 3 7 7 11 8 -5 -9 2 12 13 8 2 9 16 8 4 6 5 4 3 8 9 -2 6 19 4 -4 8 9 7 9 7 6 6 4 4 6 7 8 8 9 10 10 10 10 12 14 14 15 15 14 13 11 11 11 11 9 9 9 10 9 7 7 8 8 9 10 10 9 7 5 5 4 4 4 5 6 6
7 6 8 6 2 10 11 4 3 5 9 13 11 4 -4 -3 4 8 7 1 4 12 7 1 5 7 9 8 5 4 4 12 18 7 1 5 3 2 7 7 6 6 5 5 4 5 8 8 8 9 9 10 9 10 11 11 12 14 14 15 15 14 13 13 13 12 12 12 9 8 9 9 10 11 10 8 6 5 4 4 4 5 6 6 6 6
3 -0 2 6 7 9 8 5 3 3 4 6 8 7 5 10 8 -2 4 12 5 1 4 6 9 9 8 10 8 7 11 15 11 2 1 3 1 3 7 6 4 3 5 5 4 5 5 6 8 8 8 8 8 8 9 10 11 12 13 14 14 14 14 12 13 12 11 10 10 10 11 11 11 10 7 5 5 5 6 6 6 6 6 6 6 6
10 3 -1 2 4 4 2 3 7 9 7 4 2 3 5 11 14 4 2 5 1 3 10 8 5 -1 -4 5 13 11 9 12 12 6 2 1 3 6 6 3 4 7 6 4 4 6 6 5 6 6 7 7 7 7 7 8 10 11 12 14 14 15 15 14 13 13 11 11 12 13 13 11 9 7 5 6 6 6 6 6 6 6 5 6 7 6
9 6 4 4 4 2 2 6 11 11 11 6 -1 4 7 4 6 9 6 3 3 7 6 -0 2 7 5 3 5 6 6 6 7 11 10 4 6 11 8 3 6 9 8 7 6 7 7 6 5 4 5 6 6 7 7 7 10 10 10 12 14 15 17 17 16 16 14 13 14 13 10 8 6 6 6 6 6 6 6 5 5 5 5 6 6 5
4 8 6 1 2 5 3 4 8 8 9 8 0 1 6 3 4 14 16 10 5 6 6 2 2 7 12 9 1 3 9 5 1 10 15 9 5 6 1 -2 3 9 12 13 10 6 7 7 6 5 4 5 6 6 7 7 8 8 9 12 13 13 16 18 17 15 12 9 9 8 7 6 6 6 6 5 5 5 5 5 6 7 7 7 7 6
4 12 16 9 5 8 2 -4 3 11 14 14 6 1 4 5 6 15 20 13 9 12 15 15 9 3 4 8 4 2 7 11 9 8 8 8 5 2 0 1 4 7 9 11 8 8 10 8 6 6 3 3 6 5 6 9 9 8 8 9 12 12 11 10 8 7 5 4 4 4 4 4 4 4 4 5 5 6 6 7 7 7 9 9 8 8
5 3 11 15 12 8 4 -2 2 11 14 10 3 1 5 7 5 9 10 7 7 9 9 13 16 8 2 6 6 1 2 8 10 3 1 7 7 6 8 8 7 6 7 9 8 8 11 10 9 13 9 3 5 6 5 7 8 9 9 9 9 7 3 0 -1 2 4 4 4 4 4 5 4 5 6 5 6 7 6 7 7 8 9 9 8 8
12 5 5 13 14 10 10 7 1 3 8 7 4 3 4 7 13 15 7 -1 1 5 9 21 24 11 7 12 11 5 5 10 15 15 13 12 8 8 9 6 7 7 4 8 11 8 10 11 10 15 14 5 4 5 5 6 7 8 8 9 9 6 3 -0 -2 1 4 4 4 5 5 6 6 5 6 5 5 5 4 4 5 5 7 9 8 7
7 8 5 9 11 9 10 7 -3 -3 4 5 3 3 2 4 11 14 6 -2 -1 2 9 23 25 12 9 15 14 13 13 12 15 17 16 15 13 11 8 9 16 15 4 6 10 5 7 11 10 11 11 7 7 5 3 5 7 7 8 9 10 10 9 6 4 4 4 4 5 6 6 7 7 5 5 3 1 1 1 0 1 3 5 6 6 7
6 8 6 9 8 5 11 13 4 1 7 7 5 6 5 4 9 13 9 1 1 6 9 12 13 11 14 14 10 9 8 4 7 10 8 11 14 11 10 14 18 14 7 9 9 2 4 10 10 9 7 7 10 9 6 6 6 6 7 7 8 10 10 9 8 7 5 5 6 7 7 5 3 1 1 -0 0 3 6 5 4 5 5 3 4 6
15 14 9 10 6 2 11 20 12 5 6 7 8 8 5 10 17 15 6 -0 1 8 11 7 3 4 9 12 10 10 9 6 8 10 7 9 11 9 13 18 14 7 7 9 7 5 6 6 6 9 9 8 9 8 7 8 7 6 7 6 6 7 7 8 8 7 6 6 6 5 3 1 0 1 2 1 2 5 7 7 7 7 7 6 4 2
12 12 10 12 8 3 7 10 5 5 8 9 11 8 2 9 16 7 -0 7 12 12 11 13 9 -0 -3 3 5 6 9 7 8 11 9 8 9 9 12 14 10 8 9 5 4 8 9 7 9 12 10 8 10 9 7 8 7 5 4 5 6 8 8 7 7 7 6 5 4 3 3 2 2 1 1 2 4 7 8 8 7 5 6 8 6 4
9 6 9 14 13 9 7 3 0 4 8 8 13 15 5 -2 -2 -6 -5 3 8 9 12 16 14 4 1 6 4 0 4 6 7 12 11 7 7 9 12 10 5 8 11 4 1 7 8 5 7 9 6 5 8 9 7 7 8 7 6 5 5 7 9 9 8 8 7 6 6 6 5 4 4 4 4 6 7 7 8 8 6 6 7 7 7 6
8 8 9 9 11 10 7 4 4 7 7 -2 -4 8 15 10 3 -1 0 4 3 3 7 10 11 10 13 14 7 2 5 6 9 17 17 11 9 8 9 10 10 14 17 11 5 8 9 5 4 6 7 7 6 6 7 7 7 7 7 5 5 6 8 10 10 9 8 6 6 5 5 7 11 10 8 8 8 8 8 6 5 8 8 7 7 4
2 6 8 7 8 9 11 13 10 8 11 4 -2 7 15 16 12 4 2 8 8 6 13 18 14 9 8 10 9 5 4 6 12 18 17 13 15 14 7 5 8 10 10 9 7 9 9 6 4 5 6 4 2 3 5 6 7 7 6 5 6 5 6 8 9 8 8 6 4 4 5 8 11 10 7 7 8 8 8 5 5 8 9 5 2 2
4 1 5 7 4 3 12 21 16 9 8 8 9 6 -6 -8 7 11 6 10 13 17 22 13 -2 -4 0 3 7 4 1 4 5 9 16 16 10 6 1 -1 3 5 2 3 5 8 8 7 6 5 5 5 7 7 7 6 5 5 6 6 5 5 5 7 7 7 6 6 4 3 4 6 5 3 4 6 5 7 9 7 6 8 6 2 0 3
3 -1 1 5 6 4 2 -1 -2 1 6 8 12 11 -2 -7 4 9 7 6 2 6 14 2 -9 0 6 3 4 4 6 12 3 -8 4 15 8 2 4 4 6 4 1 3 5 6 8 7 6 6 5 4 6 8 9 10 7 5 5 5 4 5 5 5 5 5 5 4 4 4 4 7 8 7 8 7 6 12 13 5 1 3 2 2 2 2
6 8 8 3 5 10 8 1 -1 4 10 8 6 12 18 18 11 3 5 5 -6 -2 18 20 9 8 6 4 7 5 11 30 33 15 7 8 7 7 7 7 9 6 3 6 6 5 5 5 4 7 6 3 0 -2 -1 2 4 5 4 4 4 5 5 5 5 5 5 4 4 5 5 6 6 7 7 4 5 13 12 2 1 4 4 4 1 0
6 6 6 0 -1 7 13 14 9 5 7 6 1 4 17 23 18 14 17 16 9 7 9 3 -4 1 7 9 10 5 -1 5 18 23 13 0 1 9 8 5 8 9 7 8 7 5 6 6 6 7 7 6 5 4 2 2 2 3 3 4 6 6 6 8 7 5 6 5 4 5 5 3 3 3 2 3 6 9 7 4 5 7 5 2 -1 0
13 9 9 7 4 10 20 24 18 9 8 10 5 2 4 3 4 9 12 12 17 22 16 3 -1 5 9 7 9 14 7 -13 -20 -9 -8 -12 3 24 24 11 8 9 8 7 7 7 6 5 6 6 6 7 7 6 5 4 3 4 4 3 5 4 4 5 4 4 6 6 6 5 3 3 6 3 2 6 8 6 2 1 5 12 16 12 5 3
11 12 15 14 7 4 9 15 17 12 7 7 6 3 3 3 3 8 10 8 7 10 10 8 6 5 6 7 8 14 16 6 -0 4 3 -2 4 12 2 -10 -8 3 8 5 5 8 8 7 7 7 5 6 7 7 7 6 5 5 4 3 3 4 4 4 3 4 5 5 6 5 3 5 8 7 6 6 4 6 8 2 0 10 14 6 0 3
5 7 12 13 9 7 4 4 8 9 7 10 13 8 7 9 3 -4 -4 -1 1 2 3 6 9 10 10 9 8 9 9 8 7 12 15 12 7 2 -5 -11 -8 2 8 4 1 4 6 6 6 7 7 7 6 5 5 4 5 4 3 3 4 3 3 4 4 3 2 3 4 3 2 3 2 4 11 9 1 7 16 9 4 12 8 -6 -5 6
10 13 15 10 4 4 5 5 8 9 7 9 14 13 14 21 24 19 13 7 3 2 2 2 6 10 9 7 10 12 12 10 7 7 10 12 10 9 9 5 2 3 6 8 8 5 5 7 6 5 5 5 4 5 4 2 3 3 4 5 6 4 4 5 6 4 2 4 8 9 11 14 11 7 12 13 10 21 34 27 14 12 6 -1 4 11
4 7 14 15 12 9 7 6 5 3 -1 -4 -3 -2 -3 -3 2 12 19 19 14 9 6 1 -1 2 7 9 10 10 9 10 11 9 8 8 9 11 10 8 7 5 6 14 17 6 -3 1 6 5 5 5 2 2 4 4 3 4 5 7 7 5 4 4 6 7 5 3 4 7 11 18 21 17 13 11 11 19 27 22 9 4 7 11 14 12
3 2 4 10 14 15 15 14 13 11 9 4 0 -1 -2 -6 -10 -10 -3 6 12 15 18 17 9 3 1 2 5 8 6 1 -1 2 6 8 8 11 13 12 12 11 8 10 12 3 -3 3 6 2 1 4 5 4 5 6 6 4 4 7 6 5 5 5 6 8 6 3 3 5 6 9 12 12 8 6 5 6 8 10 8 10 16 16 11 9
6 4 1 -1 2 6 7 7 9 11 14 13 9 6 4 5 5 3 3 7 8 5 12 24 27 20 13 9 8 8 4 -0 -2 -0 3 5 6 8 10 7 8 16 20 15 8 6 10 16 18 15 8 3 3 6 5 3 4 4 4 6 7 4 3 4 3 2 3 3 4 7 8 8 8 9 9 8 9 9 8 9 11 12 11 9 8 8
3 3 4 3 3 5 4 1 1 4 6 9 12 12 11 9 7 5 5 5 1 -6 -5 9 23 25 18 11 11 11 8 6 7 4 4 7 8 8 9 8 4 8 19 24 22 21 19 13 9 16 21 14 7 9 10 6 4 5 4 5 6 5 3 4 6 7 7 5 4 4 5 5 6 8 8 8 7 7 7 8 8 8 6 6 7 6
Height
5790 5790 5792 5791 5790 5791 5791 5789 5790 5792 5791 5792 5792 5793 5794 5795 5794 5793 5793 5793 5792 5792 5792 5791 5791 5791 5790 5790 5789 5789 5789 5788 5788 5788 5787 5787 5787 5787 5787 5787 5788 5788 5789 5790 5790 5790 5790 5790 5791 5792 5792 5793 5793 5794 5794 5795 5795 5795 5795 5794 5794 5794 5793 5793 5793 5792 5792 5792 5791 5791 5790 5790 5789 5789 5788 5788 5787 5787 5787 5786 5786 5786 5786 5786 5786 5785
5791 5791 5792 5792 5791 5792 5791 5791 5792 5793 5793 5793 5793 5793 5794 5795 5795 5794 5794 5793 5793 5793 5793 5792 5792 5792 5791 5791 5790 5790 5789 5789 5789 5788 5788 5788 5788 5788 5788 5788 5788 5789 5790 5791 5791 5791 5792 5792 5792 5793 5793 5793 5794 5794 5795 5795 5795 5796 5795 5795 5795 5795 5794 5794 5794 5794 5794 5793 5793 5792 5792 5791 5791 5790 5790 5790 5789 5789 5789 5788 5788 5788 5788 5788 5787 5787
5791 5793 5792 5792 5792 5792 5792 5792 5794 5795 5795 5794 5795 5795 5795 5795 5795 5795 5794 5794 5793 5793 5794 5793 5793 5793 5792 5792 5791 5791 5790 5790 5789 5789 5788 5789 5789 5788 5788 5788 5789 5790 5791 5792 5792 5793 5793 5794 5794 5794 5794 5794 5795 5795 5795 5796 5796 5796 5796 5796 5796 5796 5796 5796 5795 5795 5795 5795 5794 5794 5793 5793 5793 5792 5792 5791 5791 5791 5790 5790 5790 5790 5789 5789 5789 5789
5791 5793 5793 5793 5793 5792 5793 5795 5795 5796 5796 5795 5796 5796 5796 5795 5796 5796 5795 5794 5794 5793 5794 5794 5794 5794 5793 5793 5792 5792 5791 5790 5790 5789 5789 5789 5789 5788 5788 5789 5789 5790 5792 5792 5793 5793 5794 5794 5795 5795 5795 5795 5795 5796 5796 5797 5797 5797 5798 5798 5798 5797 5797 5797 5797 5797 5797 5796 5796 5795 5795 5794 5794 5794 5793 5793 5793 5792 5792 5792 5792 5791 5791 5791 5790 5790
5791 5793 5794 5793 5794 5794 5796 5797 5797 5797 5797 5797 5797 5796 5795 5795 5796 5796 5795 5794 5794 5794 5795 5794 5794 5794 5794 5794 5793 5792 5792 5791 5790 5790 5790 5789 5789 5789 5789 5789 5789 5791 5792 5793 5793 5794 5794 5795 5795 5795 5795 5796 5796 5796 5797 5797 5798 5798 5799 5799 5799 5799 5799 5799 5799 5799 5798 5798 5797 5797 5796 5796 5796 5795 5795 5794 5794 5794 5794 5793 5793 5793 5792 5792 5792 5791
5792 5795 5794 5794 5796 5796 5797 5798 5798 5798 5798 5797 5797 5796 5794 5795 5796 5796 5795 5795 5795 5795 5794 5793 5793 5794 5794 5794 5794 5792 5792 5791 5791 5791 5790 5790 5790 5790 5790 5790 5790 5791 5793 5793 5794 5794 5795 5795 5795 5796 5796 5796 5797 5797 5798 5798 5799 5799 5800 5800 5800 5800 5800 5800 5800 5800 5799 5799 5799 5798 5798 5797 5797 5797 5796 5796 5796 5795 5795 5795 5794 5794 5794 5793 5793 5793
5793 5795 5794 5795 5798 5798 5799 5799 5798 5799 5798 5798 5798 5796 5794 5795 5796 5796 5795 5795 5795 5795 5794 5793 5793 5793 5793 5794 5794 5793 5792 5791 5791 5792 5791 5790 5790 5791 5791 5791 5792 5792 5793 5794 5794 5795 5795 5796 5796 5796 5797 5797 5798 5798 5799 5799 5800 5801 5801 5801 5801 5802 5802 5802 5801 5801 5801 5800 5800 5800 5799 5799 5798 5798 5798 5797 5797 5797 5796 5796 5796 5795 5795 5794 5794 5794
5795 5795 5796 5798 5799 5799 5800 5799 5798 5799 5799 5798 5798 5796 5796 5797 5797 5796 5795 5795 5795 5794 5794 5794 5794 5794 5793 5794 5793 5793 5793 5792 5791 5792 5792 5791 5791 5791 5792 5792 5793 5793 5793 5794 5795 5795 5795 5796 5796 5797 5797 5798 5799 5799 5799 5800 5801 5802 5802 5802 5803 5803 5803 5803 5803 5802 5802 5802 5801 5801 5801 5800 5800 5799 5799 5799 5798 5798 5798 5797 5797 5796 5796 5796 5795 5795
5796 5796 5797 5799 5799 5800 5799 5798 5798 5800 5800 5798 5798 5797 5797 5797 5796 5795 5795 5795 5794 5795 5795 5794 5794 5793 5793 5793 5792 5793 5793 5793 5792 5792 5793 5793 5792 5792 5792 5793 5793 5793 5794 5794 5794 5795 5795 5796 5796 5797 5798 5799 5799 5800 5800 5801 5802 5803 5803 5804 5804 5804 5804 5804 5804 5803 5803 5803 5803 5802 5802 5802 5801 5801 5800 5800 5800 5799 5799 5799 5798 5798 5797 5797 5796 5796
5795 5796 5797 5799 5800 5800 5799 5797 5797 5798 5798 5798 5798 5797 5796 5794 5794 5794 5794 5793 5793 5795 5795 5793 5793 5793 5793 5793 5793 5793 5793 5793 5792 5792 5794 5794 5793 5792 5793 5793 5793 5793 5794 5795 5795 5795 5795 5796 5797 5797 5798 5799 5800 5801 5801 5802 5803 5803 5804 5805 5805 5805 5805 5805 5805 5805 5804 5804 5804 5804 5803 5803 5803 5802 5802 5801 5801 5801 5800 5800 5799 5799 5798 5798 5797 5797
5795 5796 5797 5798 5798 5799 5799 5798 5797 5796 5796 5797 5798 5796 5794 5793 5793 5794 5795 5794 5794 5795 5794 5793 5794 5794 5793 5793 5795 5794 5793 5793 5793 5793 5794 5794 5793 5793 5793 5793 5794 5794 5795 5796 5796 5796 5796 5796 5797 5798 5799 5800 5800 5801 5802 5803 5803 5804 5805 5805 5806 5806 5806 5806 5806 5806 5805 5805 5805 5805 5805 5804 5804 5804 5803 5803 5803 5802 5802 5802 5801 5800 5800 5799 5799 5798
5796 5797 5798 5798 5797 5798 5799 5798 5797 5797 5797 5798 5797 5796 5796 5796 5796 5796 5796 5795 5795 5794 5793 5794 5795 5793 5792 5794 5795 5794 5793 5793 5794 5794 5794 5794 5794 5794 5794 5795 5795 5795 5796 5796 5797 5797 5797 5797 5798 5798 5799 5800 5801 5802 5803 5803 5804 5805 5805 5806 5807 5807 5807 5807 5807 5806 5806 5806 5806 5806 5805 5805 5805 5805 5804 5804 5804 5804 5803 5803 5802 5802 5801 5801 5800 5800
5795 5796 5798 5799 5797 5797 5798 5799 5799 5798 5798 5798 5797 5798 5798 5798 5797 5797 5797 5796 5795 5795 5794 5793 5793 5794 5793 5793 5793 5792 5792 5793 5794 5794 5794 5794 5794 5795 5795 5796 5796 5796 5796 5797 5797 5798 5798 5798 5798 5799 5800 5801 5801 5802 5803 5804 5805 5805 5806 5806 5807 5807 5807 5807 5807 5807 5807 5807 5806 5806 5806 5806 5806 5805 5805 5805 5805 5805 5804 5804 5803 5803 5803 5802 5802 5801
5794 5795 5796 5798 5798 5797 5798 5799 5800 5799 5798 5798 5797 5798 5798 5798 5797 5797 5797 5797 5796 5796 5795 5792 5793 5795 5795 5793 5792 5792 5792 5794 5794 5794 5794 5794 5795 5795 5796 5796 5796 5797 5797 5797 5798 5798 5799 5799 5799 5800 5800 5801 5802 5803 5804 5804 5805 5806 5806 5807 5807 5808 5808 5808 5808 5808 5808 5807 5807 5807 5807 5806 5806 5806 5806 5806 5806 5805 5805 5805 5805 5804 5804 5803 5803 5802
5794 5794 5795 5797 5798 5797 5796 5798 5800 5799 5798 5798 5796 5796 5798 5798 5797 5796 5797 5797 5797 5797 5796 5795 5795 5796 5796 5796 5796 5795 5794 5795 5795 5795 5795 5795 5795 5796 5797 5797 5797 5797 5797 5798 5798 5799 5799 5799 5800 5800 5801 5801 5802 5803 5804 5805 5805 5806 5806 5807 5807 5808 5808 5808 5808 5808 5808 5808 5808 5808 5807 5807 5807 5807 5807 5807 5806 5806 5806 5805 5805 5805 5804 5804 5804 5804
5794 5794 5794 5796 5797 5796 5797 5799 5799 5798 5798 5798 5796 5795 5796 5797 5796 5797 5797 5797 5797 5797 5797 5798 5798 5797 5797 5798 5799 5798 5797 5797 5796 5796 5796 5796 5796 5796 5797 5797 5797 5797 5797 5798 5798 5798 5799 5800 5800 5801 5801 5802 5802 5803 5804 5805 5805 5806 5807 5807 5807 5808 5808 5808 5808 5808 5808 5808 5808 5808 5808 5808 5808 5807 5807 5807 5807 5806 5806 5805 5805 5805 5805 5804 5804 5804
5792 5792 5793 5795 5795 5795 5797 5799 5799 5798 5798 5798 5796 5795 5796 5796 5796 5797 5798 5798 5797 5798 5798 5798 5798 5798 5798 5799 5799 5799 5798 5798 5798 5797 5797 5797 5796 5796 5797 5797 5798 5797 5797 5797 5798 5798 5799 5799 5800 5801 5801 5802 5802 5803 5804 5804 5805 5806 5807 5807 5807 5807 5808 5808 5808 5808 5808 5808 5808 5808 5808 5808 5808 5808 5807 5807 5807 5806 5806 5805 5805 5805 5805 5805 5804 5804
5791 5792 5792 5793 5794 5795 5795 5796 5798 5799 5798 5797 5797 5796 5796 5795 5795 5797 5798 5799 5798 5798 5798 5798 5798 5798 5799 5799 5799 5799 5798 5798 5798 5798 5797 5797 5797 5796 5796 5796 5797 5797 5797 5797 5798 5798 5799 5799 5800 5801 5801 5802 5802 5803 5803 5804 5805 5806 5806 5807 5807 5807 5808 5808 5808 5808 5808 5808 5808 5808 5808 5808 5808 5808 5808 5807 5807 5806 5806 5805 5805 5805 5805 5805 5805 5804
5791 5792 5792 5792 5794 5796 5795 5794 5796 5797 5796 5796 5797 5797 5796 5796 5796 5797 5798 5798 5798 5798 5798 5797 5797 5798 5798 5799 5799 5799 5799 5799 5798 5798 5798 5797 5797 5797 5796 5796 5797 5797 5797 5797 5798 5798 5799 5799 5799 5800 5801 5801 5802 5802 5803 5803 5804 5805 5806 5806 5807 5807 5807 5807 5808 5808 5808 5808 5808 5808 5808 5808 5808 5808 5807 5807 5806 5806 5806 5806 5806 5805 5805 5805 5805 5804
5790 5791 5792 5792 5793 5794 5794 5794 5795 5797 5796 5796 5797 5798 5798 5797 5797 5798 5798 5798 5799 5799 5799 5797 5797 5798 5798 5798 5799 5799 5799 5799 5798 5798 5798 5798 5797 5797 5797 5796 5796 5797 5797 5798 5798 5798 5798 5798 5799 5800 5800 5801 5801 5801 5802 5802 5803 5804 5804 5805 5806 5806 5806 5807 5807 5807 5807 5807 5807 5808 5808 5807 5807 5807 5807 5807 5806 5806 5806 5806 5806 5805 5805 5805 5804 5803
5789 5789 5790 5791 5791 5791 5793 5794 5795 5797 5797 5797 5797 5798 5800 5798 5797 5797 5798 5798 5798 5798 5798 5798 5797 5798 5798 5798 5798 5798 5798 5799 5798 5798 5798 5798 5798 5797 5797 5797 5796 5797 5797 5798 5798 5798 5798 5798 5799 5799 5799 5800 5800 5801 5801 5801 5802 5803 5803 5804 5804 5805 5805 5805 5806 5806 5806 5807 5807 5807 5807 5807 5807 5807 5806 5806 5805 5805 5805 5805 5805 5805 5805 5804 5803 5803
5789 5788 5788 5790 5790 5790 5792 5793 5794 5796 5797 5798 5799 5798 5798 5797 5795 5796 5796 5796 5797 5796 5797 5797 5798 5798 5797 5796 5797 5797 5798 5799 5798 5797 5797 5797 5797 5797 5797 5797 5796 5797 5797 5797 5797 5797 5798 5798 5798 5798 5799 5799 5799 5800 5800 5800 5801 5801 5802 5803 5803 5803 5804 5804 5804 5805 5805 5806 5806 5806 5806 5806 5806 5805 5805 5805 5805 5805 5805 5804 5804 5804 5803 5803 5803 5802
5786 5787 5787 5788 5789 5789 5790 5791 5792 5794 5795 5797 5798 5796 5795 5794 5795 5795 5794 5795 5796 5796 5796 5797 5797 5797 5796 5796 5797 5798 5798 5798 5798 5797 5797 5796 5796 5797 5797 5797 5796 5796 5796 5796 5796 5797 5797 5798 5798 5798 5798 5798 5798 5798 5799 5799 5799 5800 5800 5801 5801 5802 5802 5802 5803 5803 5804 5804 5805 5804 5804 5804 5804 5804 5804 5804 5804 5804 5804 5803 5803 5802 5802 5802 5802 5801
5783 5784 5785 5786 5787 5788 5789 5789 5791 5792 5792 5793 5795 5794 5794 5793 5792 5793 5792 5794 5796 5795 5796 5796 5796 5796 5796 5796 5796 5797 5797 5797 5797 5797 5796 5796 5796 5797 5797 5797 5796 5795 5795 5795 5795 5796 5797 5797 5797 5797 5797 5798 5798 5798 5798 5798 5798 5798 5798 5799 5799 5800 5800 5801 5801 5802 5802 5803 5803 5803 5803 5803 5803 5803 5803 5803 5803 5803 5803 5802 5802 5801 5801 5801 5800 5800
5781 5782 5782 5784 5785 5786 5787 5788 5788 5789 5789 5790 5791 5791 5792 5791 5790 5790 5791 5793 5794 5794 5794 5795 5794 5794 5795 5796 5795 5796 5796 5796 5796 5795 5795 5796 5796 5796 5797 5796 5796 5795 5794 5793 5793 5795 5796 5797 5796 5796 5797 5797 5797 5797 5797 5797 5796 5797 5797 5797 5798 5798 5799 5799 5800 5800 5801 5801 5802 5802 5802 5802 5802 5802 5802 5802 5802 5802 5801 5801 5801 5800 5800 5799 5799 5798
5779 5779 5779 5782 5783 5784 5786 5786 5785 5786 5786 5787 5788 5788 5788 5789 5789 5789 5791 5792 5792 5792 5792 5792 5792 5793 5794 5794 5794 5795 5795 5796 5796 5795 5794 5795 5795 5795 5796 5796 5795 5795 5794 5792 5791 5793 5794 5795 5795 5795 5796 5796 5796 5796 5796 5796 5795 5795 5796 5796 5796 5797 5797 5797 5798 5798 5799 5800 5800 5800 5801 5801 5801 5801 5801 5801 5800 5800 5800 5800 5799 5798 5798 5798 5797 5797
5777 5777 5778 5780 5780 5781 5782 5781 5782 5783 5784 5785 5786 5786 5785 5786 5787 5787 5789 5789 5790 5791 5791 5790 5790 5791 5792 5793 5793 5793 5794 5794 5795 5795 5794 5793 5793 5793 5794 5794 5793 5793 5793 5791 5789 5790 5792 5792 5792 5793 5794 5794 5795 5795 5795 5794 5794 5794 5795 5795 5795 5795 5796 5796 5796 5797 5797 5798 5799 5799 5799 5799 5799 5799 5799 5799 5799 5799 5799 5798 5797 5797 5796 5796 5796 5795
5773 5774 5775 5777 5778 5779 5779 5779 5780 5781 5782 5783 5785 5785 5784 5785 5785 5786 5787 5787 5788 5790 5790 5788 5788 5790 5791 5792 5792 5791 5791 5792 5793 5794 5793 5792 5791 5791 5791 5792 5791 5791 5792 5791 5789 5789 5790 5790 5789 5790 5791 5792 5793 5793 5793 5793 5793 5793 5793 5794 5794 5794 5795 5795 5795 5796 5796 5797 5797 5798 5798 5798 5798 5798 5798 5798 5798 5797 5797 5796 5796 5795 5795 5794 5794 5793
5768 5770 5772 5774 5775 5777 5778 5778 5778 5779 5780 5782 5783 5783 5783 5783 5783 5784 5785 5785 5785 5787 5787 5785 5787 5789 5790 5790 5789 5787 5788 5790 5791 5792 5792 5791 5789 5788 5787 5789 5790 5790 5791 5791 5790 5789 5789 5788 5787 5787 5788 5789 5790 5791 5791 5791 5791 5792 5792 5793 5793 5794 5794 5794 5795 5795 5795 5796 5796 5797 5797 5797 5797 5797 5797 5796 5796 5796 5795 5795 5794 5793 5793 5792 5792 5791
5763 5765 5768 5770 5771 5772 5774 5775 5776 5777 5778 5778 5779 5780 5781 5781 5781 5782 5784 5784 5784 5785 5783 5783 5785 5788 5787 5787 5786 5785 5787 5788 5789 5789 5790 5790 5790 5786 5784 5787 5788 5788 5788 5788 5788 5787 5787 5787 5786 5786 5786 5787 5788 5789 5789 5789 5790 5791 5791 5792 5792 5793 5793 5794 5794 5794 5795 5795 5795 5795 5796 5795 5795 5795 5795 5794 5794 5794 5793 5792 5792 5791 5791 5790 5790 5789
5761 5763 5766 5768 5768 5769 5771 5772 5774 5775 5775 5775 5776 5776 5777 5779 5780 5782 5783 5783 5782 5783 5781 5781 5784 5785 5784 5784 5784 5783 5784 5785 5785 5786 5787 5788 5789 5786 5783 5785 5786 5785 5785 5785 5786 5786 5787 5787 5787 5787 5787 5788 5788 5788 5788 5788 5789 5789 5790 5791 5791 5792 5792 5793 5793 5794 5794 5794 5794 5794 5794 5794 5793 5793 5793 5792 5792 5791 5791 5790 5790 5789 5789 5789 5788 5787
5760 5762 5764 5766 5766 5767 5769 5771 5771 5771 5771 5771 5772 5772 5774 5776 5778 5780 5781 5780 5779 5780 5780 5780 5782 5783 5782 5783 5783 5781 5781 5782 5782 5783 5785 5786 5786 5785 5784 5783 5784 5784 5784 5784 5784 5784 5785 5786 5786 5786 5786 5787 5787 5787 5787 5787 5787 5788 5789 5789 5790 5791 5791 5792 5792 5792 5792 5792 5792 5792 5792 5792 5791 5791 5790 5790 5789 5789 5788 5788 5787 5787 5787 5787 5786 5785
5758 5759 5761 5762 5763 5765 5768 5769 5768 5767 5767 5767 5768 5768 5770 5772 5774 5776 5778 5777 5776 5777 5777 5777 5777 5778 5779 5781 5781 5779 5779 5780 5780 5782 5784 5784 5784 5784 5783 5783 5784 5784 5784 5782 5780 5781 5783 5784 5784 5783 5784 5784 5784 5785 5786 5786 5786 5787 5787 5787 5788 5789 5790 5790 5790 5790 5790 5790 5790 5790 5789 5789 5789 5788 5788 5787 5787 5787 5786 5786 5785 5785 5785 5785 5783 5782
5755 5756 5758 5758 5759 5762 5765 5766 5765 5764 5764 5765 5765 5766 5768 5770 5770 5772 5773 5772 5772 5772 5774 5773 5772 5774 5777 5778 5778 5776 5775 5776 5777 5778 5781 5782 5782 5783 5783 5782 5783 5782 5781 5779 5777 5777 5780 5782 5782 5782 5782 5782 5782 5784 5785 5785 5785 5785 5785 5785 5786 5787 5788 5788 5788 5788 5788 5788 5788 5787 5787 5786 5786 5785 5785 5785 5785 5785 5784 5783 5782 5782 5782 5782 5781 5780
5752 5754 5755 5755 5756 5759 5761 5762 5761 5761 5761 5763 5764 5765 5766 5767 5768 5769 5769 5769 5769 5770 5771 5772 5770 5771 5774 5775 5774 5773 5772 5772 5774 5775 5776 5778 5779 5779 5780 5780 5780 5779 5778 5776 5775 5775 5776 5778 5780 5780 5781 5781 5781 5783 5784 5784 5783 5783 5783 5783 5783 5784 5785 5785 5785 5785 5785 5785 5785 5785 5784 5783 5782 5782 5782 5782 5782 5781 5781 5780 5779 5779 5780 5779 5778 5777
5747 5750 5751 5751 5753 5755 5757 5758 5758 5756 5757 5760 5762 5762 5763 5762 5764 5766 5767 5767 5768 5768 5768 5770 5770 5770 5770 5771 5771 5771 5768 5768 5771 5772 5772 5773 5774 5775 5775 5776 5776 5777 5776 5774 5774 5774 5775 5776 5777 5778 5779 5779 5779 5781 5782 5782 5782 5781 5780 5780 5780 5781 5781 5782 5783 5783 5782 5782 5782 5781 5781 5780 5779 5779 5779 5779 5778 5777 5777 5776 5776 5776 5776 5775 5774 5773
5742 5744 5746 5747 5748 5750 5752 5755 5754 5752 5753 5756 5757 5758 5759 5759 5759 5761 5763 5764 5765 5765 5765 5767 5769 5768 5767 5768 5769 5769 5766 5765 5767 5769 5769 5770 5771 5771 5771 5772 5773 5774 5774 5773 5773 5772 5772 5772 5774 5776 5777 5776 5776 5778 5779 5780 5779 5778 5777 5777 5777 5778 5779 5779 5780 5780 5780 5779 5778 5777 5777 5776 5776 5776 5776 5775 5774 5773 5773 5773 5773 5773 5772 5771 5769 5768
5736 5738 5740 5742 5744 5746 5748 5750 5750 5750 5750 5751 5752 5753 5754 5755 5756 5757 5758 5759 5760 5762 5763 5764 5765 5765 5765 5766 5766 5767 5766 5764 5765 5768 5767 5767 5767 5767 5767 5769 5770 5772 5773 5773 5772 5771 5769 5768 5769 5772 5774 5774 5774 5775 5776 5776 5776 5775 5774 5774 5774 5775 5776 5776 5776 5776 5776 5776 5774 5774 5774 5774 5774 5774 5773 5771 5769 5769 5769 5769 5769 5769 5768 5766 5765 5764
5730 5733 5736 5738 5741 5743 5744 5745 5746 5747 5745 5745 5747 5750 5751 5751 5753 5754 5755 5755 5756 5757 5758 5758 5759 5759 5761 5763 5764 5765 5765 5762 5762 5765 5766 5765 5764 5764 5764 5764 5765 5766 5767 5769 5769 5769 5769 5767 5767 5768 5770 5771 5772 5772 5771 5771 5771 5771 5771 5772 5772 5772 5772 5773 5773 5772 5771 5771 5771 5771 5771 5771 5771 5770 5769 5766 5764 5765 5765 5764 5764 5764 5763 5762 5760 5759
5727 5730 5733 5735 5738 5739 5740 5742 5743 5743 5741 5740 5743 5746 5748 5749 5750 5750 5750 5751 5752 5753 5753 5753 5753 5751 5753 5757 5760 5763 5763 5761 5759 5760 5762 5762 5762 5762 5761 5761 5760 5760 5762 5763 5764 5765 5766 5766 5765 5766 5767 5767 5767 5767 5766 5766 5766 5767 5767 5768 5768 5769 5769 5769 5769 5768 5767 5766 5766 5767 5768 5768 5767 5766 5764 5762 5760 5760 5760 5759 5759 5758 5757 5757 5756 5754
5725 5726 5728 5731 5734 5735 5737 5738 5739 5739 5739 5738 5739 5742 5745 5747 5746 5745 5744 5745 5748 5750 5750 5748 5747 5745 5745 5748 5752 5756 5758 5756 5755 5755 5756 5758 5759 5759 5759 5759 5758 5758 5759 5759 5760 5760 5761 5762 5762 5763 5763 5763 5763 5762 5760 5759 5760 5762 5763 5763 5764 5765 5765 5765 5765 5765 5763 5762 5761 5761 5762 5762 5763 5762 5760 5758 5756 5756 5756 5755 5754 5753 5753 5752 5750 5749
5722 5723 5724 5726 5728 5730 5732 5733 5734 5735 5735 5735 5736 5739 5742 5743 5742 5741 5740 5740 5743 5745 5746 5744 5743 5743 5743 5743 5745 5748 5751 5750 5749 5749 5750 5751 5753 5754 5754 5755 5755 5755 5755 5756 5756 5756 5757 5757 5758 5758 5759 5759 5758 5757 5755 5754 5755 5757 5759 5759 5760 5760 5761 5761 5761 5760 5760 5759 5757 5756 5756 5757 5757 5757 5756 5754 5752 5751 5750 5750 5749 5749 5748 5747 5745 5744
5717 5719 5721 5722 5722 5725 5727 5728 5729 5730 5730 5731 5733 5736 5737 5738 5738 5739 5738 5737 5738 5741 5742 5743 5743 5743 5743 5742 5741 5742 5744 5745 5744 5744 5744 5744 5744 5745 5745 5746 5747 5749 5750 5751 5752 5752 5753 5753 5753 5754 5754 5754 5754 5753 5752 5752 5752 5753 5754 5755 5756 5756 5757 5758 5757 5756 5755 5755 5754 5753 5752 5752 5751 5751 5750 5749 5748 5746 5745 5744 5744 5744 5743 5742 5741 5739
5712 5714 5717 5718 5720 5721 5723 5723 5724 5725 5727 5729 5731 5731 5733 5734 5735 5736 5735 5733 5735 5737 5738 5739 5740 5741 5741 5741 5739 5738 5738 5740 5740 5741 5741 5740 5740 5739 5738 5737 5738 5740 5743 5745 5747 5748 5748 5749 5749 5749 5750 5750 5751 5750 5750 5749 5749 5749 5750 5750 5751 5752 5752 5752 5752 5751 5751 5751 5750 5749 5749 5748 5746 5746 5745 5744 5744 5743 5742 5741 5740 5738 5737 5736 5735 5734
5709 5710 5713 5714 5716 5718 5719 5719 5720 5721 5724 5725 5726 5727 5729 5730 5730 5731 5731 5730 5731 5732 5733 5733 5734 5736 5737 5737 5737 5736 5735 5735 5734 5734 5734 5735 5736 5737 5737 5736 5734 5735 5737 5739 5741 5742 5743 5744 5745 5745 5745 5746 5746 5746 5746 5746 5745 5745 5745 5745 5746 5746 5747 5747 5746 5745 5745 5745 5745 5744 5744 5743 5743 5742 5741 5741 5740 5739 5737 5736 5734 5733 5731 5730 5729 5728
5705 5707 5709 5710 5710 5711 5713 5714 5715 5717 5719 5720 5721 5722 5723 5724 5725 5725 5726 5726 5725 5726 5728 5728 5729 5730 5731 5732 5733 5733 5732 5731 5729 5729 5729 5729 5729 5730 5731 5732 5732 5733 5734 5734 5735 5736 5738 5739 5739 5740 5740 5740 5741 5741 5742 5741 5741 5741 5741 5741 5741 5742 5742 5742 5742 5741 5740 5740 5740 5739 5739 5738 5737 5737 5736 5736 5735 5733 5731 5730 5729 5727 5726 5725 5724 5722
5701 5703 5704 5705 5705 5705 5707 5708 5710 5712 5712 5713 5715 5716 5716 5717 5718 5718 5719 5720 5720 5720 5721 5722 5723 5724 5726 5727 5727 5728 5728 5727 5726 5725 5725 5724 5724 5724 5724 5724 5726 5728 5729 5729 5729 5730 5731 5733 5734 5734 5735 5735 5735 5736 5736 5736 5736 5736 5736 5736 5736 5736 5736 5737 5736 5736 5735 5735 5735 5734 5734 5733 5731 5731 5730 5730 5728 5726 5725 5724 5723 5722 5721 5720 5718 5716
5696 5698 5700 5701 5700 5699 5700 5702 5704 5706 5707 5707 5708 5709 5709 5710 5711 5712 5713 5714 5714 5715 5715 5716 5717 5718 5719 5721 5721 5722 5722 5722 5721 5721 5721 5720 5720 5719 5719 5719 5720 5721 5722 5724 5724 5724 5724 5726 5727 5727 5728 5729 5730 5730 5730 5730 5731 5731 5731 5731 5731 5731 5731 5731 5730 5730 5729 5728 5728 5728 5727 5727 5725 5725 5724 5724 5722 5721 5719 5718 5717 5716 5715 5714 5712 5710
5691 5693 5694 5695 5695 5695 5695 5697 5698 5699 5700 5701 5701 5702 5703 5704 5705 5706 5708 5709 5709 5709 5710 5710 5711 5711 5712 5714 5715 5715 5716 5716 5716 5716 5716 5716 5716 5715 5715 5714 5715 5715 5716 5718 5719 5719 5719 5719 5720 5720 5721 5722 5723 5724 5725 5725 5726 5726 5726 5726 5725 5724 5724 5725 5724 5724 5723 5722 5722 5722 5721 5721 5720 5719 5718 5717 5716 5715 5713 5712 5712 5711 5709 5708 5705 5704
5686 5688 5689 5689 5690 5690 5690 5692 5692 5693 5693 5694 5694 5695 5696 5698 5699 5700 5702 5703 5704 5704 5704 5704 5705 5705 5706 5706 5708 5709 5709 5709 5709 5710 5710 5710 5711 5711 5710 5710 5710 5710 5711 5712 5712 5712 5713 5713 5713 5713 5715 5716 5716 5717 5718 5719 5719 5719 5720 5720 5719 5718 5718 5718 5718 5718 5718 5717 5717 5716 5716 5715 5714 5713 5712 5711 5710 5709 5707 5706 5705 5704 5704 5702 5699 5697
5682 5683 5683 5684 5685 5684 5684 5686 5686 5687 5687 5688 5688 5688 5689 5691 5693 5694 5695 5697 5698 5698 5698 5698 5698 5699 5699 5699 5701 5702 5702 5702 5702 5703 5703 5704 5705 5705 5705 5705 5706 5706 5706 5706 5706 5706 5706 5707 5707 5708 5709 5710 5710 5711 5712 5712 5713 5713 5714 5714 5713 5713 5712 5712 5712 5712 5712 5711 5710 5709 5709 5708 5707 5706 5706 5705 5704 5703 5701 5700 5699 5698 5697 5695 5693 5691